Tracking 27401 objects as of 3-Jun-2023
HD Live streaming from Space Station
objects crossing your sky now

COSMOS 2497

Track COSMOS 2497 now!
10-day predictions
COSMOS 2497 is classified as:


NORAD ID: 39762
Int'l Code: 2014-028B
Perigee: 1,485.6 km
Apogee: 1,517.5 km
Inclination: 82.5 °
Period: 115.9 minutes
Semi major axis: 7872 km
RCS: Unknown
Launch date: May 23, 2014
Source: Commonwealth of Independent States (former USSR) (CIS)
Launch site: PLESETSK MISSILE AND SPACE COMPLEX (PKMTR)

COSMOS 2497 is part of the Russian military's Rodnik, or Strela 3M, system designed to relay messages between users posted in remote locations.
Your satellite tracking list
Your tracking list is empty




NASA's NSSDC Master Catalog

Two Line Element Set (TLE):
1 39762U 14028B   23154.09793147  .00000009  00000-0 -37145-5 0  9992
2 39762  82.4502  85.3138 0020251 336.0745  23.9392 12.42888613409673
Source of the keplerian elements: AFSPC